Location: Albuquerque Trailhead
(34.7934°N, 106.3736°W)
Time: 00:33:44
(UTC+00:00)

Cosmos 1891 Rocket - Pass Details

Date: 20 June 2021
Orbit: 934 x 1017 km, 82.9° (Epoch: 27 July)

Event Time Altitude Azimuth Distance (km) Brightness Sun altitude
Rises 06:02:32 0° 354° (N) 3,645 8.6 -29.8°
Reaches altitude 10° 06:05:01 10° 356° (N) 2,706 7.7 -29.9°
Enters shadow 06:11:01 81° 49° (NE) 995 4.4 -30.3°
